Weather History for Bradshaw AFB, HI

Change the Weather History Date:

Saturday, June 7, 2014

  Actual Average Record
Temperature  
Mean Temperature 56 °F -  
Max Temperature 68 °F 69 °F 75 °F (2004)
Min Temperature 44 °F 52 °F 44 °F (1998)
Degree Days  
Heating Degree Days 9    
Growing Degree Days 6 (Base 50)    
Moisture  
Dew Point 47 °F    
Average Humidity 67    
Maximum Humidity 89    
Minimum Humidity 30    
Precipitation  
Precipitation 0.00 in - - ()
Sea Level Pressure  
Sea Level Pressure 30.11 in    
Wind  
Wind Speed 6 mph (SSW)    
Max Wind Speed 12 mph    
Max Gust Speed 20 mph    
Visibility 11 miles    
Events      
Averages and records for this station are not official NWS values.
T = Trace of Precipitation, MM = Missing Value Source: NWS Daily Summary

Daily Weather History Graph

Daily Weather History Graph

Search for Another Location

Airport:

Trip Planner

Search our weather history database for the weather conditions in past years. The results will help you decide how hot, cold, wet, or windy it might be!

Date:

Astronomy

Jun. 07, 2014 Rise Set
Actual Time 5:42 AM HST 6:59 PM HST
Civil Twilight 5:18 AM HST 7:24 PM HST
Nautical Twilight 4:49 AM HST 7:53 PM HST
Astronomical Twilight 4:19 AM HST 8:23 PM HST
Moon 2:05 PM HST (6/7) 1:28 AM HST (6/7)
Length of Visible Light 14h 06m
Length of Day
13h 17m
Waxing Gibbous, 70% of the Moon is Illuminated
Jun 7
Waxing Gibbous
Jun 12
Full
Jun 19
Last Quarter
Jun 26
New
Jul 5
First Quarter

Hourly Weather History & Observations

Time (HST) Temp. Windchill Dew Point Humidity Pressure Visibility Wind Dir Wind Speed Gust Speed Precip Events Conditions
12:56 AM 48.4 °F - 45.3 °F 89% 29.96 in 12.0 mi ESE 5.8 mph - N/A   Clear
1:56 AM 46.0 °F 43.9 °F 42.4 °F 87% 29.97 in 12.0 mi ESE 4.6 mph - N/A   Clear
2:56 AM 47.7 °F - 44.1 °F 87% 29.95 in 12.0 mi SE 9.2 mph - N/A   Clear
3:56 AM 46.2 °F 43.3 °F 30.2 °F 54% 29.95 in 12.0 mi ESE 5.8 mph - N/A   Clear
4:56 AM 44.2 °F 42.7 °F 26.2 °F 49% 29.99 in 11.0 mi ESE 3.5 mph - N/A   Clear
5:56 AM 44.2 °F 41.0 °F 39.7 °F 84% 30.01 in 10.0 mi ESE 5.8 mph - N/A   Clear
6:56 AM 50.2 °F - 32.5 °F 51% 30.02 in 12.0 mi ESE 5.8 mph - N/A   Clear
7:56 AM 59.7 °F - 28.4 °F 30% 30.01 in 11.0 mi SW 2.3 mph - N/A   Clear
8:26 AM 62.6 °F - 33.8 °F 34% 30.33 in 1.6 mi WSW 5.8 mph - N/A   Clear
8:36 AM 60.8 °F - 37.4 °F 42% 30.33 in 12.0 mi West 5.8 mph - N/A   Clear
8:56 AM 62.8 °F - 37.9 °F 40% 30.02 in 12.0 mi West 4.6 mph - N/A   Clear
9:56 AM 64.9 °F - 43.9 °F 46% 30.00 in 12.0 mi SW 3.5 mph - N/A   Partly Cloudy
10:56 AM 66.9 °F - 50.0 °F 54% 30.00 in 11.0 mi WSW 10.4 mph 17.3 mph N/A   Clear
11:56 AM 65.1 °F - 50.5 °F 59% 30.00 in 12.0 mi WSW 8.1 mph 19.6 mph N/A   Mostly Cloudy
12:21 PM 64.4 °F - 51.8 °F 64% 30.31 in 12.0 mi WSW 5.8 mph 17.3 mph N/A   Mostly Cloudy
12:26 PM 64.4 °F - 51.8 °F 64% 30.31 in 12.0 mi WSW 10.4 mph 16.1 mph N/A   Mostly Cloudy
12:36 PM 64.4 °F - 51.8 °F 64% 30.31 in 11.0 mi WSW 5.8 mph 12.7 mph N/A   Mostly Cloudy
12:41 PM 66.2 °F - 51.8 °F 60% 30.31 in 11.0 mi WSW 6.9 mph 16.1 mph N/A   Mostly Cloudy
12:56 PM 64.8 °F - 53.2 °F 66% 29.98 in 11.0 mi SW 6.9 mph - N/A   Mostly Cloudy
1:11 PM 64.4 °F - 53.6 °F 68% 30.29 in 12.0 mi West 10.4 mph 17.3 mph N/A   Mostly Cloudy
1:41 PM 66.2 °F - 55.4 °F 68% 30.29 in 12.0 mi West 11.5 mph 15.0 mph N/A   Mostly Cloudy
1:56 PM 67.1 °F - 55.0 °F 65% 29.97 in 10.0 mi West 10.4 mph 16.1 mph N/A   Scattered Clouds
2:56 PM 68.0 °F - 54.9 °F 63% 29.95 in 12.0 mi West 11.5 mph 16.1 mph N/A   Partly Cloudy
3:46 PM 64.4 °F - 55.4 °F 73% 30.27 in 10.0 mi West 9.2 mph 17.3 mph N/A   Mostly Cloudy
3:56 PM 63.7 °F - 55.2 °F 74% 29.96 in 12.0 mi West 9.2 mph 16.1 mph N/A   Mostly Cloudy
4:56 PM 61.7 °F - 52.3 °F 71% 29.97 in 10.0 mi West 3.5 mph 16.1 mph N/A   Mostly Cloudy
5:11 PM 62.6 °F - 55.4 °F 77% 30.27 in 10.0 mi West 6.9 mph - N/A   Mostly Cloudy
5:21 PM 62.6 °F - 55.4 °F 77% 30.27 in 11.0 mi SW 3.5 mph 15.0 mph N/A   Mostly Cloudy
5:31 PM 62.6 °F - 48.2 °F 59% 30.27 in 10.0 mi South 6.9 mph - N/A   Mostly Cloudy
5:56 PM 60.3 °F - 46.9 °F 61% 30.00 in 12.0 mi SSE 9.2 mph - N/A   Scattered Clouds
6:06 PM 59.0 °F - 46.4 °F 63% 30.28 in 11.0 mi SE 10.4 mph 16.1 mph N/A   Mostly Cloudy
6:31 PM 57.2 °F - 48.2 °F 72% 30.28 in 12.0 mi SE 10.4 mph - N/A   Scattered Clouds
6:56 PM 56.8 °F - 49.8 °F 77% 29.99 in 12.0 mi SE 6.9 mph - N/A   Clear
7:56 PM 54.5 °F - 50.0 °F 85% 29.97 in 11.0 mi South 2.3 mph - N/A   Clear
8:56 PM 52.0 °F - 48.4 °F 88% 29.99 in 12.0 mi ESE 3.5 mph - N/A   Clear
9:56 PM 52.2 °F - 49.1 °F 89% 30.00 in 11.0 mi Calm Calm - N/A   Partly Cloudy
10:31 PM 51.8 °F - 48.2 °F 88% 30.33 in 11.0 mi NNE 2.3 mph - N/A   Mostly Cloudy
10:56 PM 52.9 °F - 48.4 °F 85% 29.98 in 11.0 mi Calm Calm - N/A   Overcast
11:16 PM 51.8 °F - 46.4 °F 82% 30.32 in 11.0 mi SE 2.3 mph - N/A   Scattered Clouds
11:56 PM 48.6 °F - 44.1 °F 84% 29.98 in 12.0 mi ESE 3.5 mph - N/A   Clear